Find Kosmos-1198

NORAD ID: 11881 Int'l Des: 1980-058 Owner: GUKOSR Country: SU operational
LEOCIRCULAR

現在のビュー

3D地球を読み込み中...

About Kosmos-1198

Kosmos-1198 (NORAD 11881) is a satellite launched Jul 9, 1980 by GUKOSR of SU. It operates in LEO, CIRCULAR orbit with a mass of 60.00 kg.

次回通過

Passes for default location (London). Set your location on the main map for personalized predictions.

高度履歴

Loading altitude history...

軌道要素

1 11881U 80058G 26194.39507155 -.00000015 00000-0 46418-5 0 9992
2 11881 74.0159 180.1385 0021884 161.5579 312.7859 12.43794194 89095
Epoch: Jul 13, 2026 • Age: 16 hours

現在のステータス

高度 1486.7 km
遠地点 / 近地点 N/A
速度 7.13 km/s
衛星直下点 -24.04°S, 53.52°E
打ち上げ日 Jul 9, 1980
運用期間 46 years
タイプ other

技術仕様

分類 Payload
質量 60.00 kg
乾燥質量 60.00 kg
総質量 60.00 kg
長さ 0.80 m
直径 0.80 m
スパン 0.80 m
形状 Poly
製造者 NPOPM
バスタイプ Strela-1 11F625
フェーズステータス In Orbit
所有者/国 GUKOSR/SU

Most Searched